Atlanta Fulton, GA

2:17 PM EST on December 05, 2019 (GMT -0500)
Fulton County-Brown

Weather History for KFTY - September, 2019

Change the Weather History Date:

Wednesday, September 25, 2019

  Actual Average Record
Temperature  
Mean Temperature 75 °F 70 °F  
Max Temperature 91 °F 81 °F 93 °F (2010)
Min Temperature 58 °F 59 °F 46 °F (2008)
Degree Days  
Heating Degree Days 0 1  
Month to date heating degree days 0 4  
Since 1 July heating degree days 0 4  
Cooling Degree Days 10 6  
Month to date cooling degree days 360 220  
Year to date cooling degree days 2076 1657  
Growing Degree Days 25 (Base 50)    
Moisture  
Dew Point 59 °F    
Average Humidity 60    
Maximum Humidity 87    
Minimum Humidity 32    
Precipitation  
Precipitation 0.00 in 0.16 in 1.85 in (1989)
Month to date precipitation 1.61 3.22  
Year to date precipitation 31.90 38.64  
Sea Level Pressure  
Sea Level Pressure 29.89 in    
Wind  
Wind Speed 2 mph (NW)    
Max Wind Speed 13 mph    
Max Gust Speed 18 mph    
Visibility 10 miles    
Events      
T = Trace of Precipitation, MM = Missing Value Source: NWS Daily Summary

Daily Weather History Graph

Daily Weather History Graph

Search for Another Location

Airport or City:

Astronomy

Sep. 25, 2019 Rise Set
Actual Time 7:28 AM EDT 7:30 PM EDT
Civil Twilight 7:03 AM EDT 7:55 PM EDT
Nautical Twilight 6:34 AM EDT 8:24 PM EDT
Astronomical Twilight 6:04 AM EDT 8:53 PM EDT
Moon 3:35 AM EDT (9/25) 5:49 PM EDT (9/25)
Length of Visible Light 12h 52m
Length of Day
12h 02m
Waning Crescent, 14% of the Moon is Illuminated
Sep 25
Waning Crescent
Sep 28
New
Oct 5
First Quarter
Oct 13
Full
Oct 21
Last Quarter

Hourly Weather History & Observations

Time (EDT) Temp. Heat Index Dew Point Humidity Pressure Visibility Wind Dir Wind Speed Gust Speed Precip Events Conditions
12:53 AM 66.0 °F - 55.9 °F 70% 29.86 in 10.0 mi Calm Calm - N/A   Clear
1:53 AM 63.0 °F - 57.0 °F 81% 29.86 in 10.0 mi Calm Calm - N/A   Clear
2:53 AM 64.9 °F - 57.0 °F 75% 29.86 in 10.0 mi Calm Calm - N/A   Clear
3:53 AM 62.1 °F - 55.0 °F 78% 29.86 in 10.0 mi Calm Calm - N/A   Clear
4:53 AM 60.1 °F - 55.9 °F 86% 29.87 in 10.0 mi Calm Calm - N/A   Clear
5:53 AM 60.1 °F - 55.0 °F 83% 29.88 in 10.0 mi Calm Calm - N/A   Clear
6:53 AM 60.1 °F - 54.0 °F 80% 29.91 in 10.0 mi NNW 3.5 mph - N/A   Clear
7:53 AM 59.0 °F - 55.0 °F 87% 29.93 in 10.0 mi Calm Calm - N/A   Clear
8:53 AM 66.9 °F - 55.9 °F 68% 29.95 in 10.0 mi Calm Calm - N/A   Clear
9:53 AM 72.0 °F - 57.0 °F 59% 29.95 in 10.0 mi Calm Calm - N/A   Clear
10:53 AM 79.0 °F - 57.0 °F 47% 29.95 in 10.0 mi NE 3.5 mph - N/A   Clear
11:53 AM 82.0 °F 82.0 °F 57.9 °F 44% 29.94 in 10.0 mi Calm Calm - N/A   Clear
12:53 PM 86.0 °F 84.0 °F 53.1 °F 32% 29.93 in 10.0 mi North 5.8 mph - N/A   Clear
1:53 PM 88.0 °F 87.1 °F 59.0 °F 37% 29.90 in 10.0 mi NNW 8.1 mph - N/A   Clear
2:53 PM 88.0 °F 87.1 °F 59.0 °F 37% 29.88 in 10.0 mi NW 10.4 mph - N/A   Clear
3:53 PM 90.0 °F 89.1 °F 59.0 °F 35% 29.86 in 10.0 mi SSW 5.8 mph - N/A   Clear
4:53 PM 89.1 °F 88.2 °F 59.0 °F 36% 29.86 in 10.0 mi Calm Calm - N/A   Clear
5:53 PM 91.0 °F 90.9 °F 61.0 °F 36% 29.86 in 10.0 mi WNW 9.2 mph - N/A   Clear
6:53 PM 89.1 °F 88.8 °F 60.1 °F 38% 29.85 in 10.0 mi WNW 5.8 mph - N/A   Clear
7:53 PM 81.0 °F 82.2 °F 63.0 °F 54% 29.86 in 10.0 mi Calm Calm - N/A   Clear
8:53 PM 78.1 °F - 64.0 °F 62% 29.88 in 10.0 mi Calm Calm - N/A   Clear
9:53 PM 73.0 °F - 66.0 °F 79% 29.89 in 10.0 mi Calm Calm - N/A   Clear
10:53 PM 73.0 °F - 64.9 °F 76% 29.89 in 10.0 mi Calm Calm - N/A   Clear
11:53 PM 73.0 °F - 64.0 °F 73% 29.90 in 10.0 mi Calm Calm - N/A   Clear